Previsão horária em Ali-Yurt

Hoje, 18 Janeiro, Segunda-feira

Tempo Temperatura Precipitação Vento Pressão Humidade
00:00 +2°C° 0 mm 1 m/s 691 mmHg 90%
01:00 +2°C° 0 mm 1 m/s 691 mmHg 91%
02:00 +2°C° 0 mm 1 m/s 691 mmHg 91%
03:00 +1°C° 0 mm 1 m/s 691 mmHg 91%
04:00 +1°C° 0 mm 1 m/s 692 mmHg 92%
05:00 +1°C° 0 mm 1 m/s 692 mmHg 93%
06:00 0°C° 0 mm 1 m/s 692 mmHg 94%
07:00 -1°C° 0.1 mm 2 m/s 693 mmHg 92%
08:00 -1°C° 0.1 mm 2 m/s 693 mmHg 90%
09:00 -1°C° 0 mm 2 m/s 694 mmHg 86%
10:00 +1°C° 0.2 mm 2 m/s 695 mmHg 82%
11:00 +2°C° 0.2 mm 2 m/s 695 mmHg 78%
12:00 +3°C° 0.2 mm 2 m/s 695 mmHg 74%
13:00 +2°C° 0.2 mm 2 m/s 695 mmHg 80%
14:00 +1°C° 0.2 mm 2 m/s 695 mmHg 85%
15:00 -1°C° 0 mm 2 m/s 695 mmHg 90%
16:00 -2°C° 0.7 mm 2 m/s 695 mmHg 89%
17:00 -2°C° 0.7 mm 2 m/s 696 mmHg 88%
18:00 -1°C° 0.7 mm 1 m/s 696 mmHg 87%
19:00 -1°C° 0.3 mm 1 m/s 696 mmHg 86%
20:00 -2°C° 0.3 mm 1 m/s 697 mmHg 84%
21:00 -2°C° 0.3 mm 1 m/s 697 mmHg 82%
22:00 -2°C° 0.1 mm 1 m/s 697 mmHg 82%
23:00 -2°C° 0.1 mm 1 m/s 698 mmHg 82%

Amanhã, 19 Janeiro, Terça-feira

Tempo Temperatura Precipitação Vento Pressão Humidade
00:00 -2°C° 0.1 mm 1 m/s 698 mmHg 82%
01:00 -3°C° 0.1 mm 1 m/s 699 mmHg 85%
02:00 -3°C° 0.1 mm 1 m/s 699 mmHg 89%
03:00 -4°C° 0.1 mm 1 m/s 699 mmHg 92%
04:00 -4°C° 0.2 mm 1 m/s 700 mmHg 92%
05:00 -4°C° 0.2 mm 1 m/s 701 mmHg 93%
06:00 -4°C° 0.2 mm 1 m/s 701 mmHg 93%
07:00 -4°C° 0.2 mm 1 m/s 701 mmHg 91%
08:00 -4°C° 0.2 mm 1 m/s 701 mmHg 89%
09:00 -4°C° 0.2 mm 1 m/s 702 mmHg 87%
10:00 -3°C° 0 mm 1 m/s 702 mmHg 82%
11:00 -3°C° 0 mm 1 m/s 702 mmHg 77%
12:00 -2°C° 0 mm 1 m/s 701 mmHg 72%
13:00 -2°C° 0 mm 1 m/s 701 mmHg 70%
14:00 -3°C° 0 mm 2 m/s 701 mmHg 69%
15:00 -3°C° 0 mm 2 m/s 700 mmHg 67%
16:00 -4°C° 0 mm 2 m/s 701 mmHg 71%
17:00 -3°C° 0 mm 1 m/s 701 mmHg 75%
18:00 -4°C° 0 mm 1 m/s 701 mmHg 78%
19:00 -4°C° 0 mm 1 m/s 701 mmHg 79%
20:00 -4°C° 0 mm 1 m/s 701 mmHg 80%
21:00 -6°C° 0 mm 1 m/s 702 mmHg 81%
22:00 -6°C° 0 mm 1 m/s 702 mmHg 80%
23:00 -6°C° 0 mm 1 m/s 702 mmHg 80%

Depois de amanhã, 20 Janeiro, Quarta-feira

Tempo Temperatura Precipitação Vento Pressão Humidade
00:00 -6°C° 0 mm 1 m/s 702 mmHg 79%
01:00 -6°C° 0 mm 1 m/s 702 mmHg 80%
02:00 -6°C° 0 mm 0 m/s 702 mmHg 81%
03:00 -6°C° 0 mm 0 m/s 702 mmHg 83%
04:00 -7°C° 0.1 mm 0 m/s 702 mmHg 85%
05:00 -7°C° 0.1 mm 1 m/s 702 mmHg 87%
06:00 -7°C° 0.1 mm 1 m/s 702 mmHg 89%
07:00 -6°C° 0.1 mm 0 m/s 702 mmHg 87%
08:00 -6°C° 0.1 mm 0 m/s 703 mmHg 85%
09:00 -6°C° 0.1 mm 0 m/s 703 mmHg 83%
10:00 -4°C° 0 mm 1 m/s 703 mmHg 81%
11:00 -3°C° 0 mm 1 m/s 703 mmHg 78%
12:00 -3°C° 0 mm 1 m/s 702 mmHg 76%
13:00 -3°C° 0.1 mm 1 m/s 702 mmHg 78%
14:00 -3°C° 0.1 mm 1 m/s 702 mmHg 80%
15:00 -3°C° 0.1 mm 1 m/s 702 mmHg 82%
16:00 -4°C° 0.1 mm 1 m/s 703 mmHg 85%
17:00 -4°C° 0.1 mm 1 m/s 703 mmHg 89%
18:00 -6°C° 0.1 mm 1 m/s 704 mmHg 93%
19:00 -6°C° 0.1 mm 0 m/s 704 mmHg 93%
20:00 -6°C° 0.1 mm 0 m/s 705 mmHg 94%
21:00 -6°C° 0.1 mm 0 m/s 705 mmHg 94%
22:00 -6°C° 0.1 mm 0 m/s 705 mmHg 94%
23:00 -7°C° 0.1 mm 0 m/s 705 mmHg 94%

21 Janeiro, Quinta-feira

Tempo Temperatura Precipitação Vento Pressão Humidade
00:00 -7°C° 0.1 mm 0 m/s 705 mmHg 94%
01:00 -7°C° 0 mm 0 m/s 705 mmHg 93%
02:00 -7°C° 0 mm 0 m/s 706 mmHg 91%
03:00 -7°C° 0 mm 0 m/s 706 mmHg 90%
04:00 -7°C° 0 mm 0 m/s 706 mmHg 89%
05:00 -7°C° 0 mm 0 m/s 707 mmHg 88%
06:00 -8°C° 0 mm 1 m/s 707 mmHg 87%
07:00 -7°C° 0 mm 0 m/s 707 mmHg 84%
08:00 -7°C° 0 mm 0 m/s 708 mmHg 81%
09:00 -6°C° 0 mm 0 m/s 708 mmHg 78%
10:00 -4°C° 0 mm 1 m/s 708 mmHg 73%
11:00 -3°C° 0 mm 1 m/s 708 mmHg 68%
12:00 -2°C° 0 mm 1 m/s 708 mmHg 62%
13:00 -2°C° 0 mm 1 m/s 708 mmHg 61%
14:00 -2°C° 0 mm 1 m/s 708 mmHg 60%
15:00 -2°C° 0 mm 1 m/s 709 mmHg 58%
16:00 -3°C° 0 mm 1 m/s 709 mmHg 64%
17:00 -4°C° 0 mm 1 m/s 709 mmHg 69%
18:00 -6°C° 0 mm 0 m/s 710 mmHg 75%
19:00 -6°C° 0 mm 0 m/s 710 mmHg 72%
20:00 -6°C° 0 mm 1 m/s 710 mmHg 69%
21:00 -6°C° 0 mm 1 m/s 711 mmHg 67%
22:00 -6°C° 0 mm 1 m/s 711 mmHg 63%
23:00 -6°C° 0 mm 1 m/s 711 mmHg 60%

22 Janeiro, Sexta-feira

Tempo Temperatura Precipitação Vento Pressão Humidade
00:00 -7°C° 0 mm 2 m/s 711 mmHg 57%
01:00 -6°C° 0 mm 2 m/s 711 mmHg 55%
02:00 -4°C° 0 mm 1 m/s 711 mmHg 54%
03:00 -4°C° 0 mm 1 m/s 711 mmHg 52%
04:00 -4°C° 0 mm 1 m/s 711 mmHg 52%
05:00 -4°C° 0 mm 1 m/s 711 mmHg 52%
06:00 -4°C° 0 mm 1 m/s 710 mmHg 52%
07:00 -3°C° 0 mm 1 m/s 710 mmHg 51%
08:00 -2°C° 0 mm 1 m/s 711 mmHg 51%
09:00 -1°C° 0 mm 1 m/s 711 mmHg 50%
10:00 0°C° 0 mm 1 m/s 710 mmHg 48%
11:00 +2°C° 0 mm 1 m/s 710 mmHg 46%
12:00 +3°C° 0 mm 1 m/s 710 mmHg 44%
13:00 +2°C° 0 mm 2 m/s 709 mmHg 46%
14:00 +2°C° 0 mm 2 m/s 709 mmHg 48%
15:00 +2°C° 0 mm 2 m/s 709 mmHg 51%
16:00 +1°C° 0 mm 1 m/s 709 mmHg 54%
17:00 0°C° 0 mm 1 m/s 709 mmHg 57%
18:00 -2°C° 0 mm 1 m/s 709 mmHg 60%
19:00 -2°C° 0 mm 1 m/s 709 mmHg 58%
20:00 -2°C° 0 mm 1 m/s 709 mmHg 57%
21:00 -2°C° 0 mm 1 m/s 709 mmHg 55%
22:00 -2°C° 0 mm 1 m/s 708 mmHg 54%
23:00 -2°C° 0 mm 1 m/s 708 mmHg 53%

23 Janeiro, Sábado

Tempo Temperatura Precipitação Vento Pressão Humidade
00:00 -2°C° 0 mm 1 m/s 708 mmHg 52%
01:00 -2°C° 0 mm 1 m/s 708 mmHg 52%
02:00 -2°C° 0 mm 1 m/s 708 mmHg 52%
03:00 -2°C° 0 mm 1 m/s 707 mmHg 51%
04:00 -2°C° 0 mm 1 m/s 707 mmHg 51%
05:00 -2°C° 0 mm 1 m/s 707 mmHg 51%
06:00 -2°C° 0 mm 1 m/s 707 mmHg 51%
07:00 -1°C° 0 mm 1 m/s 707 mmHg 50%
08:00 -2°C° 0 mm 0 m/s 707 mmHg 49%
09:00 -1°C° 0 mm 0 m/s 707 mmHg 48%
10:00 +1°C° 0 mm 0 m/s 707 mmHg 46%
11:00 +2°C° 0 mm 0 m/s 706 mmHg 45%
12:00 +3°C° 0 mm 0 m/s 706 mmHg 44%
13:00 +3°C° 0 mm 0 m/s 705 mmHg 45%
14:00 +3°C° 0 mm 0 m/s 705 mmHg 47%
15:00 +3°C° 0 mm 0 m/s 705 mmHg 49%
16:00 +1°C° 0 mm 0 m/s 705 mmHg 52%
17:00 0°C° 0 mm 0 m/s 705 mmHg 55%
18:00 -1°C° 0 mm 0 m/s 705 mmHg 58%
19:00 0°C° 0 mm 1 m/s 705 mmHg 56%
20:00 0°C° 0 mm 1 m/s 705 mmHg 54%
21:00 0°C° 0 mm 1 m/s 705 mmHg 53%
22:00 0°C° 0 mm 1 m/s 704 mmHg 51%
23:00 0°C° 0 mm 1 m/s 704 mmHg 49%
Mostrar mais

Necessitamos do seu Consentimento

A Meteoprog e os seus Fornecedores de Serviços podem armazenar e aceder a dados pessoais como cookies, identificadores do dispositivo ou outras tecnologias semelhantes existentes no seu dispositivo e processar estes dados para personalizar conteúdos e anúncios, assim como funcionalidades nas redes sociais e análise de tráfego.

  • Armazenar e/ou aceder a informações no seu dispositivo

    Os cookies, identificadores do dispositivo ou outras informações podem ser armazenados ou acedidos no seu dispositivo, para os fins acima indicados.

  • Anúncios e conteúdos personalizados, medição de anúncios e conteúdos, dados sobre o público-alvo e desenvolvimento de produtos

    Os anúncios e os conteúdos podem ser personalizados com base num perfil. Podem ser adicionados dados adicionais para uma maior personalização dos anúncios e dos conteúdos. A eficácia dos anúncios e dos conteúdos pode ser medida. Podem ser obtidas informações sobre o público que visualizou os anúncios e os conteúdos. Estes dados podem ser usados para desenvolver ou melhorar sistemas, softwares ou a experiência do utilizador.

Ao clicar em "Eu concordo”, permitirá o uso de cookies, identificadores do dispositivo e web beacons mencionados ou outras tecnologias semelhantes. As configurações do navegador do seu dispositivo podem ser alteradas.

Para certos fins, podem ser invocados interesses legítimos ao invés de consentimento. Pode ler mais informação sobre este assunto na nossa Política de Privacidade e Cookies.